Temperature
12 12 13 13 13 13 13 13 13 13 13 13 13 13 13 13 13 13 13 13 13 13 13 13 13 13 13 14 14 14 14 14 14 14 15 15 15 15 15 15 15 15 15
12 12 12 13 13 13 13 13 13 13 13 13 13 13 13 13 13 13 13 13 13 13 13 13 13 13 13 14 14 14 14 14 14 14 14 14 14 14 15 15 15 15 15
12 12 12 12 12 13 13 13 13 13 13 13 13 13 13 13 13 13 13 13 13 13 13 13 13 13 13 14 14 14 14 14 14 14 14 14 14 14 14 14 15 15 15
11 12 12 12 12 12 12 12 12 12 13 13 13 13 13 13 13 13 13 13 13 13 13 13 13 13 13 14 14 14 14 14 14 13 13 13 14 14 14 14 14 14 14
11 11 11 11 11 11 12 12 12 12 12 12 12 12 13 13 13 13 13 13 13 13 13 13 13 13 14 14 14 14 14 14 14 13 13 13 13 13 14 14 14 14 14
11 11 11 11 11 11 11 11 11 11 11 11 12 12 12 12 12 12 13 13 13 13 13 13 13 14 14 14 14 14 14 14 14 13 13 13 13 13 13 13 13 13 13
11 11 11 11 11 10 10 11 11 11 11 11 11 11 11 12 12 12 12 12 12 13 13 13 13 13 13 13 14 14 14 14 14 13 13 13 13 13 13 13 13 13 13
11 11 11 11 10 10 10 10 10 10 10 10 11 11 11 11 11 11 12 12 12 12 12 13 13 13 13 13 13 13 13 13 13 13 13 13 13 13 13 13 13 13 12
11 11 11 10 10 10 10 10 10 10 10 10 10 11 11 11 11 11 11 11 11 12 12 12 12 13 13 13 13 13 13 13 13 13 13 13 13 13 13 13 13 12 12
12 11 11 10 10 10 10 10 10 10 10 10 10 10 10 10 10 10 10 11 11 11 11 12 12 12 13 13 13 13 13 13 13 13 13 13 13 13 13 13 13 12 12
12 11 11 11 10 10 10 10 9 9 9 9 9 9 10 10 10 10 10 10 10 10 11 11 11 12 12 12 13 13 13 13 13 13 13 13 13 13 12 12 12 12 12
12 11 11 11 10 10 10 10 9 9 9 9 9 9 9 9 9 9 9 9 10 10 10 10 11 11 12 12 12 12 12 13 13 13 13 12 12 12 12 12 12 12 12
12 11 11 10 10 10 10 10 9 9 9 9 9 9 9 9 9 9 9 9 9 9 10 10 10 11 11 12 12 12 12 12 12 12 12 12 12 12 11 11 11 11 11
12 11 11 10 10 10 10 9 9 9 9 9 8 8 9 9 9 9 9 9 9 9 9 10 10 10 11 11 11 12 12 12 12 12 12 12 11 11 11 11 11 10 11
12 11 11 10 10 10 10 9 9 9 8 8 8 8 8 9 8 9 9 9 9 9 9 9 10 10 10 11 11 11 11 12 12 11 11 11 11 11 11 10 10 10 10
12 12 11 11 10 10 10 9 9 8 8 8 8 8 8 8 8 9 9 9 9 9 9 10 9 10 10 10 11 11 11 11 11 11 11 11 10 10 10 10 10 10 9
12 12 11 11 10 10 10 9 9 9 8 8 8 8 8 8 8 9 9 9 9 9 10 10 10 10 10 10 10 10 10 10 10 10 10 10 10 10 10 10 9 9 9
12 12 11 11 11 10 10 10 9 9 8 8 8 8 8 8 9 9 9 9 9 9 9 9 9 9 10 10 10 10 10 10 10 10 10 10 9 9 9 9 9 8 8
13 12 12 11 11 11 10 10 9 9 9 8 8 8 8 8 9 9 9 9 9 9 9 9 9 9 9 9 9 9 9 9 9 9 9 9 9 9 8 8 8 8 8
13 13 12 12 11 11 11 10 10 9 9 8 8 8 8 9 9 9 9 10 9 9 9 9 9 9 9 9 9 9 9 9 9 8 8 8 8 8 8 8 7 7 7
13 13 12 12 12 11 11 11 10 10 9 9 8 8 8 9 9 9 10 10 10 10 9 9 9 9 9 9 9 9 8 8 8 8 8 8 7 7 7 7 7 7 7
13 13 13 12 12 12 11 11 11 10 10 9 9 9 8 9 9 9 9 10 10 10 10 10 10 9 9 9 9 9 9 8 8 7 7 7 7 7 7 7 7 7 7
13 13 13 13 12 12 12 12 11 11 10 10 9 9 9 9 9 9 9 10 10 10 10 10 10 10 10 10 10 9 9 8 8 8 7 7 7 7 7 7 7 7 7
13 13 13 13 13 13 12 12 12 11 11 10 10 10 9 9 9 9 9 10 10 10 10 10 10 10 10 10 10 10 10 9 8 8 7 7 7 7 7 7 7 7 7
13 13 13 13 13 13 13 12 12 12 11 11 11 10 10 9 9 9 9 10 10 10 10 10 10 10 11 11 11 10 10 9 9 8 8 8 8 8 8 8 7 7 6
13 13 13 13 13 13 13 13 12 12 12 12 11 11 10 10 10 10 10 10 10 10 11 11 11 10 11 11 11 10 10 10 9 9 9 8 8 8 8 8 7 7 6
Wind_Speed
9 9 9 9 8 8 8 8 7 6 6 5 5 5 5 4 3 3 3 4 4 3 3 3 2 2 3 3 3 3 4 4 4 2 2 2 2 3 2 2 6 7 8
10 10 10 9 9 9 9 9 8 8 7 6 6 6 6 5 4 3 2 2 3 3 2 2 1 1 2 3 3 4 4 4 4 3 1 1 2 2 1 0 1 4 5
10 10 11 11 11 10 10 9 9 9 9 8 8 7 6 5 4 3 1 0 1 2 2 2 2 2 2 3 4 4 3 3 3 3 2 1 1 1 1 1 1 1 2
9 10 10 10 10 10 10 10 10 10 10 10 9 8 7 6 5 4 2 0 1 1 1 2 3 3 4 4 4 4 4 3 3 2 1 1 1 1 1 1 2 2 2
9 9 9 8 9 9 9 9 10 10 10 9 10 10 9 7 7 6 4 2 1 1 1 1 3 5 6 5 4 4 4 3 3 2 1 1 0 0 1 1 2 2 3
8 8 8 8 8 8 8 8 9 10 9 10 10 10 11 10 13 13 7 4 3 2 2 2 1 2 4 6 7 7 6 5 4 3 2 1 1 1 1 1 2 2 2
7 7 7 7 7 7 7 8 8 8 9 10 10 10 10 12 16 15 12 6 5 5 4 3 2 2 4 5 7 8 6 6 5 4 3 2 1 1 2 2 2 3 3
6 7 7 7 7 7 7 8 7 6 7 7 9 9 9 12 17 15 12 8 6 6 6 4 3 3 3 5 6 6 5 5 5 4 4 3 2 2 2 3 5 5 5
5 6 6 6 6 7 7 7 6 6 7 7 6 9 9 11 16 15 11 5 6 6 6 6 5 4 3 5 7 7 7 5 7 10 10 9 9 8 6 5 4 4 4
3 4 4 5 6 7 6 5 5 5 6 6 7 8 9 9 14 15 12 5 5 5 5 6 8 6 5 5 5 6 7 5 5 6 7 9 9 11 10 5 4 4 3
1 4 5 5 6 6 5 5 5 6 7 7 7 7 8 10 12 15 13 5 4 4 4 4 5 7 6 6 6 4 6 6 6 6 6 6 7 7 7 8 6 4 4
4 6 6 6 6 5 6 6 6 6 7 7 7 8 7 8 10 12 13 11 6 4 4 3 4 6 7 7 5 6 9 8 6 6 6 6 6 6 7 9 13 14 11
6 6 5 6 6 6 6 6 6 6 6 6 6 7 7 8 9 14 13 12 10 5 4 5 7 8 8 7 8 9 7 6 6 6 6 4 3 4 4 5 8 12 15
6 5 4 5 5 5 5 5 5 5 6 6 7 7 7 7 8 8 7 7 8 6 5 7 10 11 9 8 7 7 5 5 5 6 5 3 3 4 4 3 4 4 6
5 5 4 4 3 3 3 3 3 3 3 3 3 4 5 6 8 11 8 7 5 5 4 5 6 5 6 6 6 6 5 5 5 4 5 5 5 5 4 4 3 4 5
4 4 3 3 2 1 1 2 2 1 4 6 6 5 3 6 9 12 13 14 13 10 7 7 7 7 6 6 6 6 5 5 4 5 5 5 5 6 6 5 5 6 6
4 4 3 3 2 1 1 1 3 4 5 7 9 9 9 10 11 11 11 12 14 12 8 7 7 6 6 6 5 5 4 4 4 5 6 5 6 6 6 6 5 5 5
4 4 4 3 3 2 2 1 1 1 3 3 5 8 9 11 12 12 10 8 9 9 7 6 6 6 6 6 5 5 5 5 5 5 5 5 5 5 5 5 4 4 3
3 3 3 3 3 2 2 1 1 0 1 2 3 4 6 7 9 12 9 6 5 6 6 6 5 5 5 5 5 5 5 5 5 5 5 5 4 5 5 4 4 5 3
2 4 4 3 3 2 2 2 2 1 0 1 1 2 3 4 4 5 5 4 4 4 4 4 4 5 5 5 5 5 5 5 5 5 4 4 4 4 5 5 4 3 3
1 2 3 3 3 4 3 4 3 3 2 2 2 2 1 1 1 1 2 2 2 2 2 3 3 4 4 4 4 5 5 4 4 4 4 4 4 4 4 4 4 3 3
1 2 2 3 4 4 4 4 4 4 4 4 3 2 2 2 2 1 1 1 0 0 0 1 2 2 2 2 2 3 3 3 3 3 3 4 4 4 4 3 3 3 3
2 2 3 3 4 5 5 4 5 5 5 5 4 3 3 3 3 3 3 3 2 1 1 2 1 1 2 2 2 2 2 2 1 1 3 4 4 3 3 3 3 3 3
2 3 4 3 4 4 5 5 5 6 6 5 5 5 5 5 4 5 4 4 3 3 3 3 3 3 2 1 1 1 2 1 1 2 4 4 4 3 3 3 3 3 3
3 3 4 4 4 5 5 5 6 6 6 6 6 5 5 5 5 5 5 4 5 5 5 5 5 4 4 3 3 2 2 2 2 3 5 6 5 4 4 3 3 3 3
4 4 4 4 4 5 5 6 6 7 7 7 6 6 6 6 6 6 6 5 5 5 6 7 8 7 6 5 4 3 3 3 4 5 7 7 5 4 4 4 5 4 5
Wind_Direction
15 18 19 18 20 25 29 31 32 35 38 46 58 66 68 74 85 101 113 127 130 126 128 145 155 159 169 173 167 168 172 163 198 248 259 289 304 312 328 247 231 221 223
19 24 26 27 27 31 33 32 35 39 38 42 52 59 60 60 64 75 93 120 138 149 151 141 165 167 177 172 170 179 178 175 179 218 267 304 305 319 323 274 204 203 208
21 25 29 29 30 31 32 31 35 39 39 39 44 48 47 46 49 48 55 88 165 181 175 177 203 186 206 191 183 186 178 173 173 187 238 280 311 343 30 54 76 74 159
22 27 29 27 28 31 33 35 37 39 40 37 38 36 33 33 31 24 17 343 249 225 214 205 201 204 217 201 188 180 160 151 150 171 217 254 277 311 97 105 85 65 57
22 25 21 21 28 32 34 35 37 40 41 36 37 33 26 26 25 22 11 10 10 346 287 241 225 217 213 190 171 159 146 138 138 155 173 170 232 173 154 145 119 101 63
23 19 16 23 29 30 32 36 40 37 34 36 34 30 29 27 26 30 28 22 20 21 359 334 283 199 179 159 149 147 145 145 150 146 145 154 186 198 150 118 124 118 92
20 17 17 23 30 27 34 39 36 32 34 35 29 27 23 19 26 28 32 34 34 30 21 10 28 86 111 116 119 115 111 121 132 141 136 144 153 177 146 109 94 92 94
18 17 17 24 29 27 36 37 31 29 32 30 29 24 21 19 23 27 31 34 39 35 29 30 48 51 75 114 115 104 88 77 94 97 105 103 111 117 124 119 115 100 84
18 18 19 28 34 33 32 28 25 35 37 32 25 26 23 13 17 24 30 21 32 30 27 33 46 48 58 116 120 115 100 82 81 89 84 82 84 91 103 102 97 96 83
10 32 40 43 46 41 36 34 30 37 33 27 27 23 20 12 13 20 26 21 22 21 22 24 31 40 65 105 120 125 120 110 100 86 69 63 64 62 63 76 109 110 109
53 70 57 49 54 49 45 39 37 36 33 27 21 14 13 10 9 17 24 25 16 18 23 18 12 31 63 94 106 118 133 126 107 96 83 70 63 58 54 55 62 92 105
95 82 64 48 48 50 52 45 39 38 37 26 18 12 7 3 5 13 23 30 31 31 19 7 9 40 66 86 93 109 116 112 106 98 88 79 73 70 68 69 72 71 71
102 93 79 64 51 47 54 50 43 39 37 26 20 14 3 360 3 13 21 28 33 39 29 42 53 59 63 65 78 95 99 104 108 102 98 88 79 84 84 79 74 75 65
116 110 97 82 63 49 49 51 52 41 34 27 20 10 1 359 4 4 7 14 20 33 39 53 64 66 65 62 63 67 71 92 107 109 106 90 77 79 72 72 76 67 64
125 125 114 101 89 63 52 46 49 35 26 26 3 353 357 359 359 15 25 20 18 29 43 51 54 57 60 60 62 64 66 78 88 90 100 98 90 82 63 51 64 67 81
140 146 146 139 128 103 41 6 355 355 20 36 29 25 357 8 17 28 33 34 34 42 59 58 56 57 62 64 72 72 66 70 78 93 96 97 97 93 84 70 74 87 94
165 170 165 167 179 201 244 338 344 349 20 36 31 36 41 35 34 31 33 39 38 45 59 56 54 54 57 60 64 73 68 59 72 87 92 93 96 94 95 92 89 88 86
167 180 178 189 200 213 228 252 296 356 358 350 4 29 44 44 40 34 33 45 43 43 49 52 50 50 54 58 60 65 70 68 72 78 82 85 93 99 99 94 90 95 91
176 188 187 189 199 207 207 203 209 27 24 354 351 3 21 34 38 36 40 52 55 45 42 45 42 44 48 51 54 58 65 69 73 77 79 84 91 98 98 94 92 90 84
222 222 194 184 190 190 185 184 189 195 247 332 335 329 351 30 28 18 29 41 52 48 42 44 39 42 44 47 51 58 65 66 68 73 80 84 86 95 107 107 104 100 89
257 258 217 190 198 200 197 200 200 200 220 244 261 269 230 112 70 31 30 36 47 50 47 48 46 42 42 45 53 64 71 70 72 82 89 92 98 98 101 104 105 108 115
269 253 230 221 217 209 207 203 198 206 221 232 248 278 176 154 178 194 216 237 232 219 149 100 76 55 46 47 58 77 82 79 76 90 101 104 106 112 115 112 112 111 115
296 280 260 241 227 221 212 205 205 210 221 226 227 230 224 220 217 215 217 217 213 219 199 166 144 114 85 75 79 108 117 114 94 114 128 123 121 121 122 125 131 126 127
291 287 275 261 236 221 218 218 215 216 220 225 224 222 221 220 220 218 212 205 203 213 210 201 198 197 179 166 156 157 165 176 158 143 144 138 132 127 123 122 125 127 127
268 278 274 265 249 235 228 226 224 223 223 224 224 223 221 216 215 213 203 195 198 208 215 214 213 212 209 207 212 218 221 215 189 162 151 141 138 137 135 133 133 128 130
251 263 265 262 255 243 234 231 230 226 225 226 223 219 216 214 213 207 197 192 196 205 214 217 219 218 217 217 222 230 238 227 200 181 168 153 144 145 140 134 134 133 134
Height
1511 1509 1507 1505 1503 1502 1500 1499 1498 1498 1497 1497 1497 1497 1497 1498 1499 1500 1501 1503 1504 1506 1508 1510 1512 1514 1516 1519 1521 1523 1525 1527 1528 1530 1530 1531 1532 1533 1534 1536 1538 1540 1542
1515 1513 1510 1509 1507 1505 1504 1503 1502 1501 1500 1499 1499 1498 1498 1499 1500 1501 1502 1503 1504 1505 1507 1509 1510 1513 1515 1517 1518 1520 1522 1524 1526 1527 1528 1528 1529 1529 1531 1532 1535 1537 1539
1519 1517 1514 1512 1510 1509 1507 1506 1505 1504 1503 1502 1501 1501 1501 1501 1501 1502 1503 1503 1504 1505 1507 1508 1510 1511 1513 1515 1517 1518 1520 1522 1523 1524 1525 1525 1526 1527 1528 1529 1531 1533 1535
1524 1521 1518 1516 1514 1512 1511 1509 1507 1506 1505 1504 1503 1503 1503 1502 1503 1503 1504 1504 1504 1505 1506 1508 1509 1511 1512 1514 1516 1517 1519 1520 1521 1522 1523 1523 1524 1524 1525 1527 1529 1530 1532
1528 1525 1523 1520 1518 1516 1514 1512 1511 1509 1508 1507 1506 1505 1504 1504 1504 1503 1504 1504 1504 1505 1506 1507 1509 1510 1512 1513 1515 1516 1518 1518 1519 1520 1521 1521 1522 1523 1523 1525 1526 1527 1529
1532 1529 1527 1525 1522 1520 1518 1516 1514 1512 1511 1509 1508 1507 1506 1505 1504 1504 1503 1504 1504 1505 1505 1507 1508 1509 1511 1513 1515 1516 1517 1518 1519 1519 1520 1520 1521 1521 1522 1523 1524 1525 1527
1536 1533 1530 1528 1525 1523 1521 1519 1517 1516 1514 1512 1511 1509 1508 1506 1505 1504 1504 1503 1504 1504 1505 1506 1507 1509 1511 1513 1514 1516 1517 1518 1519 1520 1520 1520 1520 1521 1521 1522 1523 1524 1525
1539 1536 1533 1531 1528 1526 1525 1523 1521 1519 1517 1515 1513 1512 1510 1508 1506 1505 1504 1503 1503 1504 1504 1505 1507 1508 1510 1512 1514 1516 1517 1518 1519 1520 1520 1520 1521 1521 1522 1522 1523 1524 1525
1541 1539 1536 1534 1531 1529 1527 1526 1524 1522 1520 1518 1516 1514 1512 1510 1508 1506 1504 1504 1503 1503 1504 1505 1506 1508 1510 1512 1514 1516 1517 1519 1520 1521 1521 1522 1522 1522 1523 1523 1524 1525 1526
1543 1541 1538 1536 1534 1532 1530 1528 1527 1525 1523 1520 1518 1516 1513 1511 1509 1507 1505 1504 1503 1503 1504 1505 1506 1507 1509 1511 1514 1516 1518 1519 1521 1522 1523 1523 1524 1524 1524 1525 1525 1526 1527
1545 1543 1541 1538 1536 1534 1532 1530 1529 1527 1525 1523 1520 1518 1515 1513 1510 1508 1506 1504 1503 1503 1504 1504 1505 1507 1509 1511 1513 1516 1518 1520 1521 1523 1524 1525 1525 1526 1526 1526 1527 1528 1528
1546 1544 1542 1540 1538 1536 1534 1533 1531 1529 1527 1525 1522 1520 1517 1515 1512 1509 1507 1506 1504 1504 1504 1504 1505 1507 1509 1511 1513 1516 1518 1520 1522 1524 1525 1526 1526 1527 1528 1528 1529 1529 1530
1547 1546 1544 1542 1540 1538 1537 1535 1533 1531 1529 1527 1524 1522 1520 1517 1515 1512 1509 1507 1506 1505 1505 1505 1506 1507 1509 1511 1514 1516 1519 1521 1523 1525 1526 1527 1528 1529 1529 1530 1531 1531 1532
1548 1547 1545 1544 1542 1541 1539 1537 1536 1533 1531 1529 1527 1525 1522 1520 1517 1515 1513 1510 1509 1508 1507 1507 1508 1509 1510 1512 1515 1518 1520 1522 1524 1526 1527 1528 1529 1530 1531 1532 1533 1533 1533
1549 1548 1547 1545 1544 1543 1541 1540 1538 1536 1534 1532 1529 1527 1525 1522 1520 1518 1516 1514 1512 1511 1510 1510 1510 1511 1513 1514 1517 1519 1521 1523 1525 1527 1528 1530 1531 1532 1533 1533 1534 1534 1534
1550 1549 1548 1547 1546 1544 1543 1541 1540 1538 1536 1534 1532 1530 1528 1526 1523 1521 1519 1517 1516 1515 1514 1514 1514 1514 1516 1517 1519 1521 1523 1525 1527 1528 1530 1531 1532 1533 1534 1534 1535 1535 1535
1550 1550 1549 1548 1547 1546 1545 1543 1541 1540 1538 1536 1534 1532 1530 1528 1526 1524 1522 1521 1520 1519 1518 1517 1518 1518 1519 1521 1522 1524 1525 1527 1529 1530 1531 1533 1533 1534 1535 1535 1535 1535 1535
1551 1550 1550 1549 1548 1547 1546 1544 1543 1541 1539 1537 1535 1534 1532 1530 1528 1526 1525 1524 1523 1522 1522 1522 1522 1522 1523 1524 1525 1527 1528 1529 1530 1532 1533 1534 1534 1535 1535 1535 1535 1535 1535
1551 1550 1550 1549 1548 1548 1546 1545 1544 1542 1540 1539 1537 1535 1534 1532 1530 1529 1527 1527 1526 1525 1525 1525 1526 1526 1527 1527 1528 1529 1530 1531 1532 1533 1534 1534 1535 1535 1535 1535 1535 1535 1535
1550 1550 1550 1549 1548 1548 1547 1546 1544 1543 1541 1540 1538 1537 1535 1534 1532 1531 1530 1529 1528 1528 1528 1528 1528 1528 1529 1529 1530 1530 1531 1532 1532 1533 1534 1534 1534 1535 1535 1535 1535 1535 1535
1549 1549 1549 1548 1548 1547 1546 1546 1545 1543 1542 1541 1540 1538 1537 1535 1534 1533 1531 1530 1530 1529 1529 1529 1529 1529 1529 1529 1530 1530 1530 1531 1532 1532 1533 1533 1534 1534 1534 1534 1534 1535 1535
1547 1547 1547 1547 1547 1546 1546 1545 1544 1543 1542 1541 1540 1539 1538 1537 1535 1534 1533 1532 1531 1530 1530 1529 1529 1529 1528 1528 1529 1529 1529 1530 1530 1531 1532 1532 1533 1533 1533 1534 1534 1534 1534
1544 1544 1544 1545 1545 1545 1545 1544 1543 1543 1542 1541 1540 1539 1538 1537 1536 1535 1534 1533 1532 1531 1530 1529 1529 1528 1528 1528 1527 1528 1528 1528 1529 1530 1530 1531 1532 1532 1533 1533 1533 1533 1534
1541 1541 1541 1542 1542 1542 1543 1542 1542 1542 1541 1540 1540 1539 1538 1537 1536 1535 1534 1533 1532 1531 1531 1530 1529 1529 1528 1527 1527 1527 1527 1528 1528 1529 1530 1530 1531 1531 1532 1532 1532 1533 1533
1538 1538 1538 1538 1539 1539 1540 1540 1540 1540 1539 1539 1538 1538 1537 1536 1535 1534 1533 1533 1532 1531 1531 1530 1530 1529 1528 1528 1527 1527 1527 1527 1528 1528 1529 1529 1530 1530 1531 1531 1531 1532 1532
1535 1534 1534 1534 1535 1535 1536 1536 1537 1537 1537 1536 1536 1535 1535 1534 1533 1533 1532 1531 1531 1531 1530 1530 1529 1529 1528 1528 1527 1527 1527 1527 1528 1528 1529 1529 1529 1529 1530 1530 1530 1531 1531